TimeCST,TemperatureF,Dew PointF,Humidity,Sea Level PressureIn,VisibilityMPH,Wind Direction,Wind SpeedMPH,Gust SpeedMPH,PrecipitationIn,Events,Conditions,WindDirDegrees,DateUTC
12:10 AM,32.0,28.4,87,29.66,10.0,SW,10.4,-,N/A,,Overcast,220,2013-01-09 06:10:00
12:30 AM,32.0,28.4,87,29.66,10.0,SW,13.8,17.3,N/A,,Overcast,230,2013-01-09 06:30:00
12:49 AM,32.0,28.4,87,29.66,10.0,SW,11.5,-,N/A,,Overcast,230,2013-01-09 06:49:00
1:10 AM,32.0,28.4,87,29.67,10.0,WSW,9.2,18.4,N/A,,Mostly Cloudy,240,2013-01-09 07:10:00
1:30 AM,30.2,26.6,86,29.66,10.0,SW,10.4,-,N/A,,Scattered Clouds,230,2013-01-09 07:30:00
1:49 AM,30.2,26.6,86,29.67,10.0,SW,10.4,-,N/A,,Clear,230,2013-01-09 07:49:00
2:10 AM,30.2,26.6,86,29.67,10.0,SW,13.8,-,N/A,,Clear,230,2013-01-09 08:10:00
2:30 AM,30.2,26.6,86,29.67,10.0,SW,11.5,-,N/A,,Mostly Cloudy,230,2013-01-09 08:30:00
2:49 AM,30.2,26.6,86,29.67,10.0,SW,10.4,-,N/A,,Overcast,230,2013-01-09 08:49:00
3:10 AM,30.2,26.6,86,29.67,10.0,SW,10.4,-,N/A,,Overcast,230,2013-01-09 09:10:00
3:29 AM,30.2,24.8,80,29.66,10.0,SW,10.4,16.1,N/A,,Overcast,230,2013-01-09 09:29:00
3:49 AM,30.2,24.8,80,29.66,10.0,SW,12.7,16.1,N/A,,Overcast,230,2013-01-09 09:49:00
4:10 AM,30.2,26.6,86,29.66,2.5,SW,13.8,18.4,N/A,Snow,Light Snow,230,2013-01-09 10:10:00
4:29 AM,30.2,26.6,86,29.66,3.0,WSW,12.7,17.3,N/A,Snow,Light Snow,250,2013-01-09 10:29:00
4:49 AM,30.2,28.4,93,29.67,1.0,WSW,10.4,-,N/A,Snow,Snow,250,2013-01-09 10:49:00
5:10 AM,30.2,28.4,93,29.69,3.0,West,17.3,27.6,N/A,Snow,Light Snow,260,2013-01-09 11:10:00
5:29 AM,30.2,26.6,86,29.71,1.8,West,26.5,34.5,N/A,Snow,Light Snow,280,2013-01-09 11:29:00
6:10 AM,30.2,21.2,69,29.74,3.0,West,23.0,32.2,N/A,Snow,Light Snow,280,2013-01-09 12:10:00
6:49 AM,28.4,21.2,74,29.78,4.0,West,24.2,36.8,N/A,Snow,Light Snow,280,2013-01-09 12:49:00
7:10 AM,28.4,21.2,74,29.81,4.0,West,20.7,39.1,N/A,Snow,Light Snow,270,2013-01-09 13:10:00
7:29 AM,28.4,21.2,74,29.83,3.0,West,24.2,35.7,N/A,Snow,Light Snow,280,2013-01-09 13:29:00
7:50 AM,28.4,21.2,74,29.85,7.0,West,25.3,33.4,N/A,,Overcast,280,2013-01-09 13:50:00
8:30 AM,28.4,21.2,74,29.90,5.0,West,20.7,33.4,N/A,,Haze,280,2013-01-09 14:30:00
8:50 AM,28.4,21.2,74,29.92,2.5,West,20.7,35.7,N/A,,Haze,280,2013-01-09 14:50:00
9:09 AM,26.6,21.2,80,29.94,3.0,West,21.9,35.7,N/A,,Haze,280,2013-01-09 15:09:00
9:30 AM,26.6,21.2,80,29.96,5.0,WNW,20.7,34.5,N/A,,Haze,290,2013-01-09 15:30:00
9:50 AM,26.6,21.2,80,29.97,7.0,WNW,20.7,31.1,N/A,,Overcast,290,2013-01-09 15:50:00
10:09 AM,26.6,21.2,80,29.98,7.0,WNW,20.7,31.1,N/A,,Overcast,290,2013-01-09 16:09:00
10:30 AM,26.6,19.4,74,29.99,10.0,WNW,16.1,24.2,N/A,,Overcast,290,2013-01-09 16:30:00
10:50 AM,26.6,19.4,74,30.00,10.0,West,20.7,24.2,N/A,,Overcast,280,2013-01-09 16:50:00
11:09 AM,26.6,19.4,74,30.00,10.0,West,16.1,25.3,N/A,,Overcast,280,2013-01-09 17:09:00
11:30 AM,26.6,21.2,80,30.03,10.0,West,17.3,25.3,N/A,,Overcast,270,2013-01-09 17:30:00
11:50 AM,26.6,19.4,74,30.04,10.0,West,20.7,24.2,N/A,,Overcast,270,2013-01-09 17:50:00
12:09 PM,26.6,19.4,74,30.04,7.0,West,19.6,28.8,N/A,,Overcast,280,2013-01-09 18:09:00
12:30 PM,26.6,19.4,74,30.04,10.0,WNW,18.4,26.5,N/A,,Overcast,290,2013-01-09 18:30:00
12:49 PM,26.6,19.4,74,30.05,10.0,West,20.7,26.5,N/A,,Overcast,280,2013-01-09 18:49:00
1:09 PM,26.6,19.4,74,30.06,10.0,West,15.0,21.9,N/A,,Overcast,270,2013-01-09 19:09:00
1:29 PM,26.6,19.4,74,30.08,10.0,WNW,16.1,21.9,N/A,,Overcast,290,2013-01-09 19:29:00
1:49 PM,26.6,19.4,74,30.10,10.0,West,12.7,18.4,N/A,,Overcast,280,2013-01-09 19:49:00
2:10 PM,26.6,19.4,74,30.12,10.0,West,12.7,-,N/A,,Overcast,270,2013-01-09 20:10:00
2:29 PM,26.6,19.4,74,30.12,10.0,West,13.8,-,N/A,,Overcast,260,2013-01-09 20:29:00
2:49 PM,26.6,19.4,74,30.15,10.0,West,9.2,-,N/A,,Overcast,260,2013-01-09 20:49:00
3:10 PM,26.6,19.4,74,30.19,10.0,West,16.1,20.7,N/A,,Overcast,270,2013-01-09 21:10:00
3:29 PM,26.6,19.4,74,30.19,10.0,West,10.4,17.3,N/A,,Overcast,270,2013-01-09 21:29:00
3:49 PM,26.6,19.4,74,30.20,10.0,West,9.2,-,N/A,,Overcast,270,2013-01-09 21:49:00
4:10 PM,26.6,17.6,69,30.21,10.0,West,12.7,-,N/A,,Overcast,260,2013-01-09 22:10:00
4:29 PM,26.6,17.6,69,30.22,10.0,West,8.1,16.1,N/A,,Overcast,260,2013-01-09 22:29:00
4:49 PM,26.6,17.6,69,30.23,10.0,West,6.9,-,N/A,,Overcast,260,2013-01-09 22:49:00
5:10 PM,24.8,17.6,74,30.25,10.0,WSW,8.1,-,N/A,,Overcast,250,2013-01-09 23:10:00
5:29 PM,24.8,17.6,74,30.26,10.0,West,9.2,-,N/A,,Mostly Cloudy,260,2013-01-09 23:29:00
5:49 PM,23.0,17.6,80,30.25,10.0,WSW,4.6,-,N/A,,Scattered Clouds,240,2013-01-09 23:49:00
6:10 PM,23.0,17.6,80,30.25,10.0,Calm,Calm,-,N/A,,Clear,0,2013-01-10 00:10:00
6:29 PM,21.2,17.6,86,30.24,10.0,Calm,Calm,-,N/A,,Clear,0,2013-01-10 00:29:00
6:49 PM,19.4,14.0,80,30.23,10.0,Calm,Calm,-,N/A,,Clear,0,2013-01-10 00:49:00
7:10 PM,17.6,15.8,93,30.23,10.0,Calm,Calm,-,N/A,,Clear,0,2013-01-10 01:10:00
7:29 PM,14.0,12.2,93,30.24,10.0,Calm,Calm,-,N/A,,Scattered Clouds,0,2013-01-10 01:29:00
7:50 PM,14.0,12.2,93,30.24,10.0,Calm,Calm,-,N/A,,Overcast,0,2013-01-10 01:50:00
8:29 PM,17.6,15.8,93,30.23,10.0,NE,3.5,-,N/A,,Overcast,50,2013-01-10 02:29:00
8:50 PM,19.4,17.6,93,30.25,10.0,Calm,Calm,-,N/A,,Overcast,0,2013-01-10 02:50:00
9:09 PM,21.2,17.6,86,30.25,10.0,Calm,Calm,-,N/A,,Overcast,0,2013-01-10 03:09:00
9:29 PM,21.2,17.6,86,30.24,10.0,Calm,Calm,-,N/A,,Overcast,0,2013-01-10 03:29:00
9:50 PM,21.2,17.6,86,30.22,10.0,ENE,3.5,-,N/A,,Overcast,70,2013-01-10 03:50:00
10:09 PM,21.2,17.6,86,30.23,10.0,Calm,Calm,-,N/A,,Overcast,0,2013-01-10 04:09:00
10:29 PM,21.2,17.6,86,30.24,10.0,Calm,Calm,-,N/A,,Overcast,0,2013-01-10 04:29:00
10:50 PM,21.2,17.6,86,30.24,10.0,Calm,Calm,-,N/A,,Overcast,0,2013-01-10 04:50:00
11:09 PM,23.0,19.4,86,30.23,10.0,Calm,Calm,-,N/A,,Overcast,0,2013-01-10 05:09:00
11:29 PM,21.2,17.6,86,30.23,10.0,Calm,Calm,-,N/A,,Overcast,0,2013-01-10 05:29:00
11:50 PM,21.2,17.6,86,30.22,10.0,ENE,3.5,-,N/A,,Scattered Clouds,60,2013-01-10 05:50:00